Location: Brad
(46.1333°N, 22.7833°E)
Time: 11:06:51
(UTC+00:00)

Cosmos 1844 Rocket - Pass Details

Date: 03 February 2023
Orbit: 825 x 843 km, 71.0° (Epoch: 31 March)

Event Time Altitude Azimuth Distance (km) Brightness Sun altitude
Rises 15:58:46 0° 338° (NNW) 3,376 5.9 -4.5°
Reaches altitude 10° 16:01:27 10° 348° (NNW) 2,438 5.0 -4.9°
Maximum altitude 16:06:28 33° 52° (NE) 1,361 3.3 -5.7°
Drops below altitude 10° 16:11:27 10° 116° (ESE) 2,425 4.7 -6.5°
Sets 16:14:07 0° 126° (SE) 3,356 5.5 -7.0°
